FW1286 Weather Reports


Display with metric or nautical units.
time (UTC)temp
F
wind
direction
speed
MPH
gust
MPH
rain 1hr
in
rain 24hr
in
rain mn
in
humidity
%
barometer
mb
20260901134939 79 179 0.0 0.0 0.00 0.00 0.00 86 1015.8
20260901133945 79 153 0.0 0.0 0.00 0.00 0.00 87 1015.9
20260901131829 75 153 0.0 0.0 0.00 0.00 0.00 94 1015.8
20260901130803 74 153 0.0 0.0 0.00 0.00 0.00 94 1015.6
20260901125803 73 153 0.0 0.0 0.00 0.00 0.00 94 1015.5
20260901124801 72 153 0.0 0.0 0.00 0.00 0.00 93 1015.5
20260901123805 72 153 0.0 0.0 0.00 0.00 0.00 92 1015.2
20260901122813 72 153 0.0 0.0 0.00 0.00 0.00 92 1015.2
20260901121823 72 153 0.0 0.0 0.00 0.00 0.00 92 1015.0
20260901120828 73 153 0.0 0.0 0.00 0.00 0.00 92 1015.0
20260901115758 73 153 0.0 0.0 0.00 0.00 0.00 91 1014.9
20260901114743 73 153 0.0 0.0 0.00 0.00 0.00 91 1014.9
20260901113727 73 153 0.0 0.0 0.00 0.00 0.00 91 1014.8
20260901112701 73 153 0.0 0.0 0.00 0.00 0.00 91 1014.8
20260901111642 74 153 0.0 0.0 0.00 0.00 0.00 90 1014.9
20260901110648 74 153 0.0 0.0 0.00 0.00 0.00 89 1014.8
20260901105620 74 153 0.0 0.0 0.00 0.00 0.00 89 1014.7
20260901104621 75 153 0.0 0.0 0.00 0.00 0.00 89 1014.8
20260901103550 75 153 0.0 0.0 0.00 0.00 0.00 89 1014.7
20260901102550 75 153 0.0 0.0 0.00 0.00 0.00 88 1014.6
20260901101540 75 153 0.0 0.0 0.00 0.00 0.00 88 1014.6
20260901095500 76 153 0.0 0.0 0.00 0.00 0.00 87 1014.6
20260901094428 76 153 0.0 0.0 0.00 0.00 0.00 86 1014.6
20260901093404 76 153 0.0 0.0 0.00 0.00 0.00 86 1014.6
20260901092349 77 153 0.0 0.0 0.00 0.00 0.00 85 1014.7
20260901091340 77 153 0.0 0.0 0.00 0.00 0.00 84 1014.7
20260901090330 78 153 0.0 0.0 0.00 0.00 0.00 84 1014.6
20260901085312 78 153 0.0 0.0 0.00 0.00 0.00 83 1014.5
20260901084306 78 153 0.0 1.0 0.00 0.00 0.00 83 1014.4
20260901083242 78 153 0.0 3.0 0.00 0.00 0.00 83 1014.3
20260901082226 79 153 0.0 4.0 0.00 0.00 0.00 82 1014.3
20260901081225 79 153 0.0 4.0 0.00 0.00 0.00 81 1014.5
20260901080237 79 110 0.0 4.0 0.00 0.00 0.00 81 1014.5
20260901075203 80 126 0.0 3.0 0.00 0.00 0.00 80 1014.5
20260901074142 80 106 1.0 5.0 0.00 0.00 0.00 80 1014.5
20260901073119 80 90 1.0 5.0 0.00 0.00 0.00 79 1014.6
20260901072127 80 109 2.0 6.0 0.00 0.00 0.00 79 1014.6
20260901071135 81 106 2.0 6.0 0.00 0.00 0.00 78 1014.6
20260901070143 81 116 0.0 4.0 0.00 0.00 0.00 77 1014.6
20260901065113 81 104 2.0 7.0 0.00 0.00 0.00 77 1014.6
20260901064107 81 129 3.0 8.0 0.00 0.00 0.00 76 1014.5
20260901063041 82 96 2.0 8.0 0.00 0.00 0.00 76 1014.4
20260901062039 82 132 2.0 5.0 0.00 0.00 0.00 75 1014.1
20260901054659 82 118 2.0 5.0 0.00 0.00 0.00 72 1014.1
20260901053647 83 123 2.0 6.0 0.00 0.00 0.00 71 1014.0
20260901052626 83 103 2.0 6.0 0.00 0.00 0.00 71 1014.0
20260901051611 83 93 2.0 6.0 0.00 0.00 0.00 70 1013.9
20260901050546 83 105 2.0 6.0 0.00 0.00 0.00 69 1013.9
20260901045515 84 113 3.0 9.0 0.00 0.00 0.00 69 1013.8
20260901044444 84 80 3.0 9.0 0.00 0.00 0.00 68 1013.8
20260901043423 84 107 3.0 7.0 0.00 0.00 0.00 68 1013.7
20260901042429 84 96 3.0 7.0 0.00 0.00 0.00 67 1013.7
20260901040301 84 107 4.0 9.0 0.00 0.00 0.00 63 1013.7
20260901035318 84 109 3.0 7.0 0.00 0.00 0.00 63 1013.8
20260901034330 83 87 1.0 7.0 0.00 0.00 0.00 63 1013.8
20260901033305 82 57 0.0 5.0 0.00 0.00 0.00 63 1013.5
20260901032307 81 41 0.0 1.0 0.00 0.00 0.00 64 1013.4
20260901031246 82 41 0.0 0.0 0.00 0.00 0.00 63 1013.2
20260901030308 82 41 0.0 1.0 0.00 0.00 0.00 62 1013.1
20260901025319 82 41 0.0 0.0 0.00 0.00 0.00 62 1013.1
20260901024319 83 41 0.0 0.0 0.00 0.00 0.00 62 1012.8
20260901023312 83 41 0.0 0.0 0.00 0.00 0.00 62 1012.7
20260901022328 83 41 0.0 0.0 0.00 0.00 0.00 61 1012.7
20260901021257 84 41 0.0 0.0 0.00 0.00 0.00 60 1012.6
20260901020319 85 41 0.0 0.0 0.00 0.00 0.00 59 1012.4
20260901015330 85 41 0.0 0.0 0.00 0.00 0.00 58 1012.3
20260901014304 86 41 0.0 0.0 0.00 0.00 0.00 57 1012.2
20260901011005 88 41 0.0 0.0 0.00 0.00 0.00 54 1012.1
20260901003806 91 53 1.0 3.0 0.00 0.00 0.00 50 1012.0
20260901002732 92 31 1.0 6.0 0.00 0.00 0.00 49 1011.8
20260901001658 93 82 1.0 6.0 0.00 0.00 0.00 48 1011.9
20260831232107 95 83 3.0 10.0 0.00 0.00 0.00 46 1011.8
20260831225952 95 97 3.0 7.0 0.00 0.00 0.00 46 1011.9
20260831224918 95 69 3.0 10.0 0.00 0.00 0.00 45 1011.9
20260831223940 96 78 4.0 10.0 0.00 0.00 0.00 45 1011.9
20260831222913 96 198 1.0 8.0 0.00 0.00 0.00 46 1011.9
20260831221926 96 115 3.0 8.0 0.00 0.00 0.00 46 1012.1
20260831220932 96 117 3.0 8.0 0.00 0.00 0.00 45 1012.2
20260831215944 95 117 3.0 8.0 0.00 0.00 0.00 46 1012.2
20260831213801 96 131 5.0 10.0 0.00 0.00 0.00 47 1012.4
20260831211601 96 98 4.0 10.0 0.00 0.00 0.00 48 1012.7
20260831205433 96 103 5.0 10.0 0.00 0.00 0.00 48 1012.9
20260831204444 96 131 5.0 12.0 0.00 0.00 0.00 47 1013.2
20260831203429 96 105 4.0 12.0 0.00 0.00 0.00 50 1013.5
20260831202431 96 172 3.0 12.0 0.00 0.00 0.00 49 1013.6
20260831201430 96 121 6.0 12.0 0.00 0.00 0.00 47 1013.8
20260831200438 95 111 4.0 11.0 0.00 0.00 0.00 51 1013.9
20260831195430 94 96 5.0 11.0 0.00 0.00 0.00 52 1014.1
20260831194357 94 51 5.0 10.0 0.00 0.00 0.00 51 1014.2
20260831193334 94 131 4.0 10.0 0.00 0.00 0.00 52 1014.2
20260831192315 94 50 4.0 14.0 0.00 0.00 0.00 53 1014.3
20260831191335 94 178 5.0 14.0 0.00 0.00 0.00 54 1014.4
20260831190328 93 180 5.0 13.0 0.00 0.00 0.00 53 1014.6
20260831182959 92 163 4.0 11.0 0.00 0.00 0.00 55 1014.9
20260831182005 93 63 4.0 9.0 0.00 0.00 0.00 56 1015.0
20260831180941 92 161 6.0 14.0 0.00 0.00 0.00 57 1015.2
20260831175926 91 164 5.0 14.0 0.00 0.00 0.00 58 1015.2
20260831173756 91 170 4.0 9.0 0.00 0.00 0.00 60 1015.6
20260831172758 90 110 4.0 11.0 0.00 0.00 0.00 63 1015.7
20260831171727 89 105 5.0 11.0 0.00 0.00 0.00 66 1015.9
20260831170721 89 67 4.0 9.0 0.00 0.00 0.00 65 1016.0
20260831164549 88 110 4.0 10.0 0.00 0.00 0.00 68 1016.1
20260831163554 87 150 4.0 8.0 0.00 0.00 0.00 71 1016.0
20260831162601 86 208 3.0 10.0 0.00 0.00 0.00 71 1016.0
20260831161535 86 159 4.0 10.0 0.00 0.00 0.00 73 1016.0
20260831160535 86 78 4.0 10.0 0.00 0.00 0.00 71 1015.9
20260831155550 86 95 5.0 10.0 0.00 0.00 0.00 73 1015.9
20260831154522 85 76 5.0 10.0 0.00 0.00 0.00 75 1015.9
20260831153450 85 150 3.0 9.0 0.00 0.00 0.00 77 1015.8
20260831152441 85 152 4.0 9.0 0.00 0.00 0.00 76 1015.8
20260831151446 84 140 4.0 9.0 0.00 0.00 0.00 78 1015.7
20260831150443 83 168 4.0 9.0 0.00 0.00 0.00 80 1015.7
20260831145424 83 191 4.0 9.0 0.00 0.00 0.00 81 1015.5
20260831144443 81 135 4.0 10.0 0.00 0.00 0.00 85 1015.4
20260831143422 81 186 4.0 10.0 0.00 0.00 0.00 86 1015.5
20260831142359 80 196 4.0 10.0 0.00 0.00 0.00 87 1015.5
20260831141413 79 182 4.0 10.0 0.00 0.00 0.00 88 1015.5
20260831140352 79 177 4.0 9.0 0.00 0.00 0.00 90 1015.3